Location: Unspecified
(43.4354°N, 0.0000°E)
Time: 17:50:28
(UTC+00:00)

SR - Pass Details

Date: 26 June 2019
Orbit: 578 x 878 km, 66.7° (Epoch: 16 August)

Event Time Altitude Azimuth Distance (km) Brightness Sun altitude
Exits shadow 03:15:07 13° 235° (SW) 1,688 ? -9.9°
Maximum altitude 03:18:38 45° 306° (NW) 796 ? -9.5°
Drops below altitude 10° 03:22:49 10° 21° (NNE) 1,949 ? -9.0°
Sets 03:25:12 0° 27° (NNE) 2,888 ? -8.6°
